RSW-02 (49114 NORAD) Tracking and Keplerian Element Data

This shows tracking and keplerian element data for the satellite.

Feedback or suggestion? Click here.




ElementValue
Catalog49114
NameRSW-02
Epoch Orbit692
Epoch Day288.08315146
Epoch Year2021
RAAN47.4704
Inclination86.4104
Eccentricity0.0020141
Argument of Perigee151.6241
Mean Anonmoly208.6005
Mean Motion13.42698664
Decay Rate3E-07
L11 49114U 21076C 21288.08315146 .00000030 00000-0 25195-4 0 9993
L22 49114 86.4104 47.4704 0020141 151.6241 208.6005 13.42698664 6925

Live tracking and technical data element details for RSW-02 (NORAD 49114). RSW-02 can be tracked NOW for your location showing map with azimuth and elevation plus other details from your city location.

Track the satellite on the map from your city or location and see movement details for azimuth, elevation, latitude, longitude, range, height, and movement on the map or in text.







IsCatalogInMostPopularTable: catalog: 49114, numindb: 18
Update: records affected: 1



GetName: 49114 RSW-02

Hit Count: updated at: Sun, 17 Oct 2021 10:37:14 GMT